When you browse on this site, cookies collect data to enhance your experience and personalize the content and advertising you see.
Visit our Privacy Policy to learn more. By continuing to use the site, you agree to this use of cookies and data.
  • In Austria
  • List of Countries
  • For 7 days
  • Water Temperature
  • Weather Map
  • News
  • Weather Widgets
  • user-avatar
    Login

    Hourly Weather Lisbon

    Today, 19 September, Thursday

    Time Temperature Precipitation Wind Pressure Humidity
    00:00 +17°C° 0 mm 2 mps 759 mmHg 88%
    01:00 +18°C° 0 mm 1 mps 758 mmHg 89%
    02:00 +18°C° 0 mm 1 mps 758 mmHg 89%
    03:00 +18°C° 0 mm 1 mps 758 mmHg 89%
    04:00 +16°C° 0 mm 1 mps 758 mmHg 90%
    05:00 +16°C° 0 mm 1 mps 758 mmHg 90%
    06:00 +19°C° 0 mm 1 mps 758 mmHg 84%
    07:00 +20°C° 0 mm 1 mps 759 mmHg 77%
    08:00 +22°C° 0 mm 1 mps 759 mmHg 70%
    09:00 +24°C° 0 mm 2 mps 759 mmHg 63%
    10:00 +26°C° 0 mm 2 mps 758 mmHg 56%
    11:00 +27°C° 0 mm 2 mps 758 mmHg 49%
    12:00 +27°C° 0 mm 3 mps 758 mmHg 49%
    13:00 +27°C° 0 mm 4 mps 758 mmHg 50%
    14:00 +27°C° 0 mm 5 mps 757 mmHg 51%
    15:00 +26°C° 0 mm 5 mps 757 mmHg 56%
    16:00 +23°C° 0 mm 5 mps 757 mmHg 62%
    17:00 +22°C° 0 mm 4 mps 757 mmHg 67%
    18:00 +21°C° 0 mm 4 mps 757 mmHg 75%
    19:00 +19°C° 0 mm 4 mps 758 mmHg 83%
    20:00 +18°C° 0 mm 3 mps 758 mmHg 90%
    21:00 +18°C° 0 mm 3 mps 758 mmHg 91%
    22:00 +18°C° 0 mm 2 mps 757 mmHg 92%
    23:00 +17°C° 0 mm 2 mps 757 mmHg 92%

    Tomorrow, 20 September, Friday

    Time Temperature Precipitation Wind Pressure Humidity
    00:00 +17°C° 0 mm 2 mps 757 mmHg 92%
    01:00 +17°C° 0 mm 2 mps 757 mmHg 92%
    02:00 +17°C° 0 mm 2 mps 756 mmHg 92%
    03:00 +19°C° 0.1 mm 1 mps 756 mmHg 92%
    04:00 +19°C° 0.1 mm 1 mps 756 mmHg 91%
    05:00 +19°C° 0.1 mm 1 mps 756 mmHg 90%
    06:00 +20°C° 0 mm 1 mps 756 mmHg 86%
    07:00 +20°C° 0 mm 1 mps 756 mmHg 82%
    08:00 +21°C° 0 mm 1 mps 756 mmHg 77%
    09:00 +23°C° 0 mm 2 mps 756 mmHg 68%
    10:00 +24°C° 0 mm 3 mps 756 mmHg 59%
    11:00 +26°C° 0 mm 3 mps 756 mmHg 50%
    12:00 +26°C° 0 mm 4 mps 755 mmHg 50%
    13:00 +26°C° 0 mm 5 mps 755 mmHg 50%
    14:00 +26°C° 0 mm 5 mps 755 mmHg 50%
    15:00 +25°C° 0 mm 5 mps 754 mmHg 57%
    16:00 +23°C° 0 mm 5 mps 754 mmHg 65%
    17:00 +22°C° 0 mm 5 mps 754 mmHg 72%
    18:00 +21°C° 0 mm 5 mps 754 mmHg 79%
    19:00 +21°C° 0 mm 5 mps 754 mmHg 85%
    20:00 +20°C° 0 mm 4 mps 755 mmHg 92%
    21:00 +20°C° 0 mm 4 mps 754 mmHg 93%
    22:00 +20°C° 0 mm 4 mps 754 mmHg 94%
    23:00 +20°C° 0 mm 4 mps 753 mmHg 95%

    Day after tomorrow, 21 September, Saturday

    Time Temperature Precipitation Wind Pressure Humidity
    00:00 +20°C° 0 mm 4 mps 753 mmHg 94%
    01:00 +20°C° 0 mm 4 mps 753 mmHg 94%
    02:00 +20°C° 0 mm 4 mps 753 mmHg 93%
    03:00 +20°C° 0.4 mm 5 mps 752 mmHg 93%
    04:00 +20°C° 0.4 mm 5 mps 752 mmHg 93%
    05:00 +20°C° 0.4 mm 6 mps 751 mmHg 92%
    06:00 +21°C° 0.7 mm 6 mps 752 mmHg 91%
    07:00 +21°C° 0.7 mm 7 mps 752 mmHg 89%
    08:00 +21°C° 0.7 mm 8 mps 752 mmHg 87%
    09:00 +21°C° 1.8 mm 7 mps 752 mmHg 88%
    10:00 +21°C° 1.8 mm 7 mps 752 mmHg 89%
    11:00 +21°C° 1.8 mm 7 mps 752 mmHg 91%
    12:00 +21°C° 0.3 mm 6 mps 753 mmHg 83%
    13:00 +21°C° 0.3 mm 6 mps 753 mmHg 76%
    14:00 +21°C° 0.3 mm 5 mps 753 mmHg 69%
    15:00 +21°C° 0 mm 5 mps 753 mmHg 68%
    16:00 +21°C° 0 mm 4 mps 754 mmHg 67%
    17:00 +20°C° 0 mm 4 mps 754 mmHg 66%
    18:00 +19°C° 0 mm 4 mps 755 mmHg 71%
    19:00 +19°C° 0 mm 3 mps 755 mmHg 76%
    20:00 +18°C° 0 mm 3 mps 756 mmHg 82%
    21:00 +18°C° 0 mm 3 mps 756 mmHg 83%
    22:00 +17°C° 0 mm 3 mps 756 mmHg 85%
    23:00 +17°C° 0 mm 3 mps 756 mmHg 86%

    22 September, Sunday

    Time Temperature Precipitation Wind Pressure Humidity
    00:00 +17°C° 0 mm 2 mps 757 mmHg 86%
    01:00 +17°C° 0 mm 2 mps 757 mmHg 85%
    02:00 +16°C° 0 mm 2 mps 757 mmHg 85%
    03:00 +16°C° 0 mm 2 mps 757 mmHg 84%
    04:00 +16°C° 0 mm 2 mps 757 mmHg 83%
    05:00 +15°C° 0 mm 2 mps 758 mmHg 82%
    06:00 +17°C° 0 mm 2 mps 758 mmHg 74%
    07:00 +18°C° 0 mm 2 mps 759 mmHg 66%
    08:00 +19°C° 0 mm 2 mps 759 mmHg 58%
    09:00 +21°C° 0 mm 2 mps 759 mmHg 53%
    10:00 +23°C° 0 mm 2 mps 759 mmHg 49%
    11:00 +24°C° 0 mm 2 mps 760 mmHg 44%
    12:00 +24°C° 0 mm 3 mps 759 mmHg 44%
    13:00 +24°C° 0 mm 3 mps 759 mmHg 44%
    14:00 +23°C° 0 mm 4 mps 759 mmHg 44%
    15:00 +22°C° 0 mm 4 mps 759 mmHg 50%
    16:00 +21°C° 0 mm 4 mps 759 mmHg 56%
    17:00 +20°C° 0 mm 4 mps 760 mmHg 62%
    18:00 +19°C° 0 mm 4 mps 760 mmHg 68%
    19:00 +18°C° 0 mm 3 mps 760 mmHg 73%
    20:00 +17°C° 0 mm 3 mps 761 mmHg 78%
    21:00 +17°C° 0 mm 3 mps 761 mmHg 80%
    22:00 +17°C° 0 mm 2 mps 761 mmHg 81%
    23:00 +17°C° 0 mm 2 mps 761 mmHg 82%

    23 September, Monday

    Time Temperature Precipitation Wind Pressure Humidity
    00:00 +16°C° 0 mm 1 mps 760 mmHg 83%
    01:00 +16°C° 0 mm 1 mps 760 mmHg 84%
    02:00 +15°C° 0 mm 0 mps 760 mmHg 85%
    03:00 +15°C° 0 mm 0 mps 760 mmHg 86%
    04:00 +15°C° 0 mm 0 mps 760 mmHg 86%
    05:00 +14°C° 0 mm 0 mps 761 mmHg 86%
    06:00 +16°C° 0 mm 0 mps 761 mmHg 78%
    07:00 +17°C° 0 mm 0 mps 761 mmHg 70%
    08:00 +19°C° 0 mm 0 mps 761 mmHg 62%
    09:00 +23°C° 0 mm 1 mps 761 mmHg 55%
    10:00 +24°C° 0 mm 1 mps 761 mmHg 48%
    11:00 +26°C° 0 mm 1 mps 761 mmHg 41%
    12:00 +26°C° 0 mm 2 mps 761 mmHg 42%
    13:00 +26°C° 0 mm 2 mps 760 mmHg 43%
    14:00 +26°C° 0 mm 3 mps 760 mmHg 43%
    15:00 +25°C° 0 mm 3 mps 760 mmHg 49%
    16:00 +22°C° 0 mm 3 mps 760 mmHg 55%
    17:00 +21°C° 0 mm 4 mps 759 mmHg 61%
    18:00 +20°C° 0 mm 3 mps 760 mmHg 66%
    19:00 +19°C° 0 mm 3 mps 760 mmHg 71%
    20:00 +18°C° 0 mm 2 mps 760 mmHg 76%
    21:00 +18°C° 0 mm 2 mps 760 mmHg 77%
    22:00 +17°C° 0 mm 2 mps 760 mmHg 78%
    23:00 +18°C° 0 mm 1 mps 760 mmHg 79%

    24 September, Tuesday

    Time Temperature Precipitation Wind Pressure Humidity
    00:00 +18°C° 0 mm 1 mps 760 mmHg 80%
    01:00 +16°C° 0 mm 1 mps 759 mmHg 81%
    02:00 +16°C° 0 mm 1 mps 759 mmHg 82%
    03:00 +16°C° 0 mm 1 mps 759 mmHg 83%
    04:00 +15°C° 0 mm 0 mps 759 mmHg 83%
    05:00 +15°C° 0 mm 0 mps 759 mmHg 84%
    06:00 +16°C° 0 mm 0 mps 759 mmHg 76%
    07:00 +18°C° 0 mm 0 mps 759 mmHg 69%
    08:00 +20°C° 0 mm 0 mps 759 mmHg 61%
    09:00 +24°C° 0 mm 1 mps 759 mmHg 55%
    10:00 +25°C° 0 mm 2 mps 759 mmHg 50%
    11:00 +27°C° 0 mm 3 mps 759 mmHg 44%
    12:00 +26°C° 0 mm 3 mps 759 mmHg 46%
    13:00 +26°C° 0 mm 4 mps 758 mmHg 48%
    14:00 +26°C° 0 mm 4 mps 758 mmHg 50%
    15:00 +25°C° 0 mm 4 mps 758 mmHg 57%
    16:00 +23°C° 0 mm 4 mps 758 mmHg 64%
    17:00 +21°C° 0 mm 4 mps 758 mmHg 72%
    18:00 +20°C° 0 mm 3 mps 758 mmHg 78%
    19:00 +20°C° 0 mm 3 mps 758 mmHg 85%
    20:00 +19°C° 0 mm 3 mps 758 mmHg 91%
    21:00 +19°C° 0 mm 3 mps 758 mmHg 92%
    22:00 +19°C° 0 mm 3 mps 758 mmHg 93%
    23:00 +18°C° 0 mm 3 mps 758 mmHg 94%
    Show more